Location: Baumgartsau
(48.4586°N, 14.0864°E)
Time: 12:50:53
(UTC+00:00)

SPOT 1/Viking Rocket - Pass Details

Date: 09 April 2020
Orbit: 776 x 795 km, 98.5° (Epoch: 27 May)

Event Time Altitude Azimuth Distance (km) Brightness Sun altitude
Exits shadow 19:50:07 37° 121° (ESE) 1,227 4.0 -19.2°
Maximum altitude 19:51:50 52° 69° (ENE) 985 3.8 -19.4°
Drops below altitude 10° 19:56:55 10° 354° (N) 2,377 6.6 -20.1°
Sets 19:59:18 0° 350° (N) 3,311 7.6 -20.4°
